1491786000.26,5014,13.44,74060.0,-2.97,-29.45,-30.27,0,*60
1491786001.52,5015,13.44,74060.0,-2.97,-29.45,-30.17,0,*62
1491786002.78,5016,13.44,74060.8,-2.97,-29.45,-30.17,0,*61
1491786003.99,5017,13.44,74062.8,-2.99,-29.61,-30.27,0,*6B
1491786005.25,5018,13.44,74060.5,-2.97,-29.51,-30.27,0,*69
1491786006.46,5019,13.44,74060.8,-2.99,-29.61,-30.33,0,*60
1491786007.69,5020,13.44,74060.5,-2.97,-29.61,-30.27,0,*61
1491786008.91,5021,13.44,74064.8,-2.99,-29.79,-30.39,0,*68
1491786010.15,5022,13.44,74062.8,-3.01,-29.83,-30.45,0,*65
1491786011.39,5023,13.44,74056.5,-2.99,-29.51,-30.33,0,*6A
1491786012.6,5024,13.44,74056.3,-2.99,-29.61,-30.27,0,*6B
1491786013.81,5025,13.44,74056.0,-2.99,-29.67,-30.33,0,*69
1491786015.04,5026,13.44,74058.3,-2.99,-29.67,-30.51,0,*6E
1491786016.27,5027,13.44,74062.8,-2.97,-29.61,-30.33,0,*63
1491786017.48,5028,13.44,74060.5,-2.99,-29.45,-30.27,0,*61
1491786018.74,5029,13.44,74062.0,-2.97,-29.51,-30.27,0,*6B
1491786019.98,5030,13.44,74062.5,-2.99,-29.67,-30.39,0,*67
1491786021.22,5031,13.44,74058.3,-2.97,-29.79,-30.39,0,*67
1491786022.46,5032,13.44,74060.0,-2.99,-29.61,-30.39,0,*63
1491786023.67,5033,13.44,74060.5,-2.99,-29.61,-30.33,0,*68
1491786024.9,5034,13.44,74058.5,-2.99,-29.51,-30.27,0,*69
1491786026.19,5035,13.44,74060.5,-2.97,-29.51,-30.17,0,*65
1491786027.4,5036,13.44,74060.3,-2.99,-29.45,-30.11,0,*6B
1491786028.61,5037,13.44,74058.3,-2.99,-29.67,-30.33,0,*6A
1491786029.84,5038,13.44,74060.5,-2.97,-29.61,-30.33,0,*6D
1491786031.08,5039,13.44,74056.5,-2.97,-29.67,-30.27,0,*6F
1491786032.28,5040,13.44,74058.5,-2.99,-29.61,-30.27,0,*69
1491786033.49,5041,13.44,74058.5,-2.99,-29.61,-30.27,0,*68
1491786034.74,5042,13.44,74060.0,-2.97,-29.79,-30.39,0,*63
1491786035.97,5043,13.44,74062.8,-2.99,-29.61,-30.39,0,*65
1491786037.18,5044,13.44,74062.8,-2.99,-29.67,-30.33,0,*6E
1491786038.39,5045,13.44,74062.8,-2.99,-29.61,-30.27,0,*6C
1491786039.65,5046,13.44,74062.3,-2.97,-29.45,-30.17,0,*64
1491786040.87,5047,13.44,74060.5,-2.99,-29.29,-30.11,0,*67
1491786042.16,5048,13.44,74062.3,-2.97,-29.51,-30.39,0,*63
1491786043.41,5049,13.44,74058.3,-2.97,-29.83,-30.51,0,*63
1491786044.66,5050,13.44,74062.5,-2.97,-29.79,-30.39,0,*60
1491786045.93,5051,13.44,74062.5,-2.97,-29.51,-30.33,0,*61
1491786047.19,5052,13.44,74060.0,-2.97,-29.51,-30.27,0,*67
1491786048.42,5053,13.44,74058.8,-2.99,-29.51,-30.27,0,*68
1491786049.68,5054,13.44,74058.3,-2.97,-29.61,-30.39,0,*6D
1491786050.91,5055,13.44,74058.3,-2.99,-29.61,-30.39,0,*62
1491786052.16,5056,13.44,74060.0,-2.97,-29.61,-30.39,0,*6F
1491786053.45,5057,13.44,74060.5,-2.97,-29.51,-30.17,0,*61
1491786054.69,5058,13.44,74056.3,-2.99,-29.51,-30.27,0,*63
1491786055.92,5059,13.44,74060.0,-2.97,-29.61,-30.27,0,*6F
1491786057.18,5060,13.44,74056.5,-2.97,-29.51,-30.27,0,*66
1491786058.41,5061,13.44,74060.8,-2.97,-29.45,-30.27,0,*62
1491786059.66,5062,13.44,74058.3,-2.97,-29.67,-30.51,0,*60
1491786060.9,5063,13.44,74060.0,-2.97,-29.61,-30.33,0,*63
1491786062.16,5064,13.44,74062.5,-2.97,-29.51,-30.27,0,*62
1491786063.37,5065,13.44,74058.5,-2.95,-29.45,-30.23,0,*60
1491786064.6,5066,13.44,74056.0,-2.97,-29.61,-30.27,0,*63
1491786065.81,5067,13.44,74058.0,-2.95,-29.45,-30.23,0,*62
1491786067.06,5068,13.44,74056.8,-2.97,-29.79,-30.51,0,*65
1491786068.29,5069,13.44,74056.0,-2.97,-29.61,-30.33,0,*69
1491786069.52,5070,13.44,74056.3,-2.97,-29.61,-30.33,0,*61
1491786070.76,5071,13.44,74058.3,-2.97,-29.61,-30.33,0,*60
1491786071.97,5072,13.44,74058.3,-2.95,-29.57,-30.23,0,*65
1491786073.2,5073,13.44,74060.5,-2.97,-29.61,-30.27,0,*67
1491786074.42,5074,13.44,74060.0,-2.99,-29.79,-30.39,0,*68
1491786075.68,5075,13.44,74062.3,-2.97,-29.83,-30.55,0,*68
1491786076.94,5076,13.44,74058.5,-2.97,-29.83,-30.51,0,*6F
1491786078.15,5077,13.44,74062.5,-2.95,-29.61,-30.33,0,*64
1491786079.4,5078,13.44,74062.3,-2.97,-29.79,-30.39,0,*6A
1491786080.65,5079,13.44,74058.3,-2.97,-29.83,-30.51,0,*60
1491786081.89,5080,13.44,74058.0,-2.97,-29.67,-30.33,0,*68
1491786083.1,5081,13.44,74062.3,-2.95,-29.61,-30.33,0,*6D
1491786084.33,5082,13.44,74062.5,-2.97,-29.67,-30.33,0,*6A
1491786085.56,5083,13.44,74058.3,-2.99,-29.79,-30.51,0,*6E
1491786086.8,5084,13.44,74060.5,-2.97,-29.61,-30.33,0,*6A
1491786088.06,5085,13.44,74058.0,-2.97,-29.83,-30.73,0,*63
1491786089.29,5086,13.44,74060.0,-2.99,-29.79,-30.55,0,*6F
1491786090.52,5087,13.44,74058.0,-2.97,-29.67,-30.33,0,*6F
1491786091.73,5088,13.44,74060.5,-2.95,-29.61,-30.27,0,*61
1491786092.94,5089,13.44,74060.0,-2.99,-29.61,-30.33,0,*69
1491786094.17,5090,13.44,74060.5,-2.99,-29.79,-30.39,0,*62
1491786095.42,5091,13.44,74060.0,-2.97,-29.83,-30.51,0,*66
1491786096.66,5092,13.44,74060.0,-2.99,-29.51,-30.27,0,*65
1491786097.91,5093,13.44,74058.8,-2.95,-29.29,-30.05,0,*67
1491786099.16,5094,13.44,74060.3,-2.95,-29.29,-30.05,0,*60
1491786100.42,5095,13.44,74056.8,-2.97,-29.51,-30.27,0,*6C
1491786101.63,5096,13.44,74060.8,-2.95,-29.45,-30.23,0,*6C
1491786102.86,5097,13.44,74060.3,-2.95,-29.23,-30.05,0,*69
1491786104.12,5098,13.44,74062.0,-2.97,-29.45,-30.17,0,*67
1491786105.38,5099,13.44,74060.5,-2.97,-29.61,-30.39,0,*6C
1491786106.63,5100,13.44,74060.0,-2.97,-29.61,-30.39,0,*6D
1491786107.89,5101,13.44,74062.0,-2.97,-29.83,-30.51,0,*6E
1491786109.12,5102,13.44,74060.8,-2.97,-29.67,-30.33,0,*63
1491786110.41,5103,13.44,74062.8,-2.97,-29.51,-30.17,0,*61
1491786111.68,5104,13.44,74058.0,-2.97,-29.51,-30.33,0,*60
1491786112.89,5105,13.44,74062.3,-2.95,-29.45,-30.23,0,*67
1491786114.12,5106,13.44,74058.8,-2.97,-29.45,-30.23,0,*66
1491786115.38,5107,13.44,74056.3,-2.97,-29.45,-30.17,0,*60
1491786116.61,5108,13.44,74060.5,-2.95,-29.29,-30.23,0,*60
1491786117.82,5109,13.44,74058.5,-2.95,-29.57,-30.27,0,*6C
1491786119.03,5110,13.44,74058.5,-2.95,-29.57,-30.27,0,*64
1491786120.23,5111,13.44,74058.8,-2.95,-29.61,-30.23,0,*64
1491786121.44,5112,13.44,74058.3,-2.95,-29.57,-30.11,0,*63
1491786122.65,5113,13.44,74058.8,-2.95,-29.45,-30.33,0,*61
1491786123.86,5114,13.44,74062.0,-2.95,-29.79,-30.45,0,*68
1491786125.07,5115,13.44,74060.0,-2.95,-29.57,-30.23,0,*65
1491786126.28,5116,13.44,74058.8,-2.91,-29.45,-30.23,0,*61
1491786127.51,5117,13.44,74062.5,-2.91,-29.79,-30.51,0,*6A
1491786128.74,5118,13.44,74056.3,-2.91,-29.73,-30.45,0,*6A
1491786129.95,5119,13.44,74060.3,-2.95,-29.57,-30.33,0,*68
1491786131.17,5120,13.44,74062.5,-2.91,-29.57,-30.27,0,*63
1491786132.38,5121,13.44,74060.5,-2.91,-29.61,-30.27,0,*67
1491786133.61,5122,13.44,74062.0,-2.95,-29.73,-30.33,0,*66
1491786134.84,5123,13.44,74062.8,-2.95,-29.73,-30.45,0,*66
1491786136.05,5124,13.44,74056.0,-2.95,-29.79,-30.33,0,*6A
1491786137.3,5125,13.44,74060.5,-2.95,-29.89,-30.51,0,*60
1491786138.51,5126,13.44,74056.8,-2.95,-29.57,-30.27,0,*61
1491786139.8,5127,13.44,74056.5,-2.89,-29.35,-30.05,0,*69
1491786141.03,5128,13.44,74062.8,-2.95,-29.39,-30.23,0,*63
1491786142.24,5129,13.44,74060.0,-2.95,-29.61,-30.23,0,*6F
1491786143.45,5130,13.44,74056.5,-2.95,-29.61,-30.33,0,*66
1491786144.68,5131,13.44,74058.0,-2.91,-29.79,-30.51,0,*6E
1491786145.92,5132,13.44,74058.3,-2.95,-29.95,-30.61,0,*68
1491786147.18,5133,13.44,74058.3,-2.97,-29.95,-30.51,0,*68
1491786148.46,5134,13.44,74056.5,-2.97,-30.01,-30.73,0,*6A
1491786149.71,5135,13.44,74060.3,-2.97,-29.79,-30.51,0,*6C
1491786150.97,5136,13.44,74056.0,-2.97,-29.51,-30.27,0,*64
1491786152.22,5137,13.44,74060.5,-2.97,-29.79,-30.51,0,*6E
1491786153.5,5138,13.44,74058.3,-2.97,-30.01,-30.73,0,*66
1491786154.76,5139,13.44,74056.8,-2.97,-30.01,-30.67,0,*62
1491786156.02,5140,13.44,74062.3,-2.97,-30.01,-30.67,0,*6C
1491786157.28,5141,13.44,74060.0,-2.97,-29.95,-30.73,0,*6D
1491786158.54,5142,13.44,74060.3,-2.97,-29.95,-30.73,0,*6E
1491786159.78,5143,13.44,74058.8,-2.97,-29.95,-30.67,0,*6A
1491786161.06,5144,13.44,74058.8,-2.97,-30.01,-30.73,0,*6D
1491786162.31,5145,13.44,74056.3,-2.97,-29.61,-30.39,0,*6C
1491786163.55,5146,13.44,74062.5,-2.97,-29.79,-30.33,0,*6C
1491786164.8,5147,13.44,74060.3,-2.97,-29.67,-30.39,0,*68
1491786166.06,5148,13.44,74058.3,-2.97,-29.51,-30.27,0,*6D
1491786167.31,5149,13.44,74058.5,-2.97,-29.67,-30.39,0,*66
1491786168.55,5150,13.44,74058.3,-2.97,-29.67,-30.33,0,*64
1491786169.76,5151,13.44,74056.5,-2.95,-29.61,-30.23,0,*60
1491786170.96,5152,13.44,74060.0,-2.95,-29.57,-30.27,0,*62
1491786172.17,5153,13.44,74058.8,-2.95,-29.61,-30.27,0,*66
1491786173.43,5154,13.44,74058.5,-2.97,-29.51,-30.27,0,*60
1491786174.65,5155,13.44,74058.5,-2.99,-29.83,-30.67,0,*64
1491786175.9,5156,13.44,74060.0,-2.97,-29.67,-30.39,0,*68
1491786177.15,5157,13.44,74056.8,-2.97,-29.79,-30.39,0,*66
1491786178.36,5158,13.44,74060.5,-2.99,-29.61,-30.33,0,*64
1491786179.62,5159,13.44,74060.0,-2.97,-29.67,-30.39,0,*67
1491786180.85,5160,13.44,74058.5,-2.99,-29.67,-30.39,0,*63
1491786182.1,5161,13.44,74056.8,-2.97,-29.83,-30.55,0,*6C
1491786183.34,5162,13.44,74058.3,-2.97,-29.83,-30.67,0,*6E
1491786184.6,5163,13.44,74058.3,-2.97,-29.61,-30.17,0,*64
1491786185.81,5164,13.44,74062.5,-2.95,-29.45,-30.23,0,*60
1491786187.02,5165,13.44,74060.5,-2.95,-29.45,-30.27,0,*65
1491786188.23,5166,13.44,74058.3,-2.95,-29.45,-30.23,0,*62
1491786189.44,5167,13.44,74062.8,-2.95,-29.61,-30.45,0,*65
1491786190.7,5168,13.44,74058.5,-2.95,-29.39,-30.05,0,*63
1491786191.91,5169,13.44,74060.8,-2.95,-29.57,-30.27,0,*6A
1491786193.11,5170,13.44,74058.5,-2.95,-29.45,-30.11,0,*64
1491786194.32,5171,13.44,74058.8,-2.95,-29.61,-30.33,0,*63
1491786195.55,5172,13.44,74058.3,-2.91,-29.73,-30.45,0,*66
1491786196.78,5173,13.44,74058.8,-2.95,-29.79,-30.51,0,*6C
1491786197.99,5174,13.44,74058.0,-2.95,-29.79,-30.33,0,*6F
1491786199.22,5175,13.44,74054.8,-2.95,-29.73,-30.45,0,*65
1491786200.43,5176,13.44,74060.5,-2.95,-29.79,-30.45,0,*6C
1491786201.65,5177,13.44,74058.8,-2.95,-29.79,-30.51,0,*68
1491786202.92,5178,13.44,74060.5,-2.95,-29.89,-30.61,0,*6B
1491786204.16,5179,13.44,74060.3,-2.97,-29.95,-30.67,0,*63
1491786205.42,5180,13.44,74056.8,-2.97,-29.67,-30.51,0,*6D
1491786206.67,5181,13.44,74062.5,-2.97,-29.67,-30.51,0,*6C
1491786207.88,5182,13.44,74058.8,-2.95,-29.45,-30.23,0,*68
1491786209.09,5183,13.44,74058.3,-2.95,-29.45,-30.11,0,*68
1491786210.34,5184,13.44,74056.8,-2.97,-29.67,-30.39,0,*67
1491786211.6,5185,13.44,74060.0,-2.97,-29.83,-30.51,0,*62
1491786212.81,5186,13.44,74056.5,-2.95,-29.95,-30.67,0,*61
1491786214.05,5187,13.44,74060.3,-2.95,-29.79,-30.61,0,*64
1491786215.3,5188,13.44,74056.3,-2.97,-29.95,-30.55,0,*6C
1491786216.56,5189,13.44,74058.3,-2.97,-29.83,-30.51,0,*6E
1491786217.81,5190,13.44,74058.3,-2.97,-29.95,-30.55,0,*65
1491786219.08,5191,13.44,74056.5,-2.97,-29.95,-30.73,0,*60
1491786220.31,5192,13.44,74056.8,-2.97,-30.11,-30.67,0,*62
1491786221.57,5193,13.44,74058.8,-2.97,-29.83,-30.55,0,*61
1491786222.82,5194,13.44,74058.5,-2.97,-29.83,-30.55,0,*66
1491786224.08,5195,13.44,74058.8,-2.97,-30.11,-30.73,0,*60
1491786225.33,5196,13.44,74056.0,-2.97,-29.83,-30.55,0,*64
1491786226.6,5197,13.44,74060.0,-2.97,-29.95,-30.73,0,*66
1491786227.85,5198,13.44,74058.8,-2.97,-29.95,-30.51,0,*69
1491786229.09,5199,13.44,74058.3,-2.99,-29.95,-30.73,0,*66
1491786230.31,5200,13.44,74056.3,-2.99,-29.83,-30.67,0,*67
1491786231.52,5201,13.44,74056.8,-2.99,-29.95,-30.67,0,*61
1491786232.76,5202,13.44,74056.8,-2.99,-29.83,-30.51,0,*60
1491786233.99,5203,13.44,74056.3,-2.99,-29.67,-30.51,0,*6B
1491786235.22,5204,13.44,74060.5,-2.97,-29.67,-30.27,0,*63
1491786236.45,5205,13.44,74056.3,-2.99,-29.83,-30.55,0,*63
1491786237.68,5206,13.44,74058.3,-2.99,-29.79,-30.51,0,*61
1491786238.91,5207,13.44,74056.3,-2.97,-29.61,-30.27,0,*66
1491786240.17,5208,13.44,74058.3,-2.97,-29.51,-30.27,0,*6A
1491786241.42,5209,13.44,74060.3,-2.97,-29.67,-30.39,0,*61
1491786242.68,5210,13.44,74060.5,-2.97,-29.83,-30.55,0,*69
1491786243.91,5211,13.44,74058.0,-2.99,-29.83,-30.55,0,*66
1491786245.13,5212,13.44,74056.5,-2.99,-29.95,-30.67,0,*63
1491786246.35,5213,13.44,74058.8,-2.99,-29.79,-30.39,0,*6B
1491786247.58,5214,13.44,74058.3,-2.99,-29.79,-30.51,0,*62
1491786248.82,5215,13.44,74056.5,-2.99,-29.45,-30.17,0,*6E
1491786250.03,5216,13.44,74058.5,-2.99,-29.45,-30.11,0,*6B
1491786251.25,5217,13.44,74058.0,-2.99,-29.79,-30.39,0,*6F
1491786252.48,5218,13.44,74058.5,-2.97,-29.45,-30.11,0,*6B
1491786253.74,5219,13.44,74056.0,-2.97,-29.51,-30.27,0,*6A
1491786254.97,5220,13.44,74058.8,-2.99,-29.61,-30.39,0,*62
1491786256.18,5221,13.44,74056.5,-2.95,-29.45,-30.11,0,*63
1491786257.44,5222,13.44,74058.3,-2.97,-29.51,-30.33,0,*67
1491786258.68,5223,13.44,74056.5,-2.97,-29.95,-30.67,0,*6F
1491786259.93,5224,13.44,74056.8,-2.97,-29.67,-30.39,0,*6E
1491786261.19,5225,13.44,74058.8,-2.97,-29.79,-30.51,0,*6E
1491786262.44,5226,13.44,74058.3,-2.97,-29.79,-30.55,0,*69
1491786263.7,5227,13.44,74056.3,-2.99,-29.51,-30.39,0,*66
1491786264.92,5228,13.44,74054.3,-2.99,-29.79,-30.39,0,*63
1491786266.18,5229,13.44,74056.3,-2.97,-29.83,-30.55,0,*63
1491786267.43,5230,13.44,74056.3,-2.97,-29.79,-30.51,0,*6A
1491786268.69,5231,13.44,74056.3,-2.97,-29.67,-30.39,0,*6A
1491786269.94,5232,13.44,74058.5,-2.97,-30.01,-30.67,0,*6A
1491786271.2,5233,13.44,74056.0,-2.97,-30.01,-30.67,0,*6B
1491786272.43,5234,13.38,74052.8,-2.99,-29.67,-30.51,0,*6F
1491786273.69,5235,13.44,74058.0,-2.97,-29.83,-30.55,0,*6E
1491786274.92,5236,13.44,74056.5,-2.99,-29.79,-30.51,0,*62
1491786276.17,5237,13.44,74056.3,-2.97,-29.67,-30.39,0,*6C
1491786277.43,5238,13.44,74054.3,-2.97,-29.83,-30.55,0,*63
1491786278.66,5239,13.44,74058.8,-2.97,-29.67,-30.33,0,*68
1491786279.92,5240,13.44,74058.5,-2.97,-29.67,-30.51,0,*62
1491786281.15,5241,13.44,74056.0,-2.99,-29.79,-30.51,0,*62
1491786282.4,5242,13.44,74056.5,-2.97,-29.79,-30.55,0,*6B
1491786283.65,5243,13.44,74056.0,-2.97,-29.79,-30.39,0,*60
1491786284.88,5244,13.38,74054.5,-2.99,-29.83,-30.55,0,*66
1491786286.11,5245,13.44,74054.3,-2.99,-29.79,-30.51,0,*66
1491786287.35,5246,13.44,74058.5,-2.99,-29.51,-30.27,0,*6E
1491786288.58,5247,13.44,74054.5,-2.99,-29.61,-30.51,0,*6D
1491786289.82,5248,13.44,74056.8,-2.99,-29.51,-30.27,0,*60
1491786291.05,5249,13.44,74056.8,-2.99,-29.67,-30.51,0,*65
1491786292.27,5250,13.44,74056.8,-2.99,-29.79,-30.55,0,*66
1491786293.53,5251,13.44,74058.8,-2.97,-29.79,-30.51,0,*6D
1491786294.78,5252,13.38,74052.5,-2.97,-29.67,-30.39,0,*6F
1491786296.01,5253,13.44,74054.0,-2.99,-29.67,-30.55,0,*6A
1491786297.24,5254,13.44,74054.5,-2.97,-29.79,-30.33,0,*6C
1491786298.49,5255,13.44,74056.8,-2.97,-29.79,-30.39,0,*67
1491786299.73,5256,13.44,74056.0,-2.99,-29.95,-30.51,0,*66
1491786301.01,5257,13.44,74058.5,-2.97,-30.01,-30.73,0,*6C
1491786302.26,5258,13.38,74052.0,-2.97,-29.79,-30.51,0,*64
1491786303.49,5259,13.38,74054.3,-2.99,-29.83,-30.51,0,*6E
1491786304.72,5260,13.44,74056.5,-2.99,-29.83,-30.55,0,*60
1491786305.96,5261,13.38,74052.8,-2.99,-29.83,-30.55,0,*61
1491786307.17,5262,13.44,74054.8,-2.99,-29.95,-30.67,0,*64
1491786308.4,5263,13.44,74052.5,-2.99,-29.79,-30.51,0,*62
1491786309.66,5264,13.44,74054.5,-2.97,-29.95,-30.73,0,*69
1491786310.89,5265,13.44,74054.3,-2.99,-29.83,-30.55,0,*65
1491786312.13,5266,13.44,74056.3,-2.99,-30.01,-30.67,0,*65
1491786313.39,5267,13.44,74054.3,-3.01,-30.23,-30.89,0,*64
1491786314.6,5268,13.38,74052.8,-2.99,-29.95,-30.67,0,*6E
1491786315.89,5269,13.44,74056.8,-3.01,-30.05,-30.77,0,*6F
1491786317.15,5270,13.44,74056.0,-3.03,-30.01,-30.73,0,*65
1491786318.42,5271,13.44,74058.5,-3.01,-29.83,-30.61,0,*67
1491786319.67,5272,13.44,74056.5,-3.01,-29.67,-30.39,0,*63
1491786320.96,5273,13.44,74052.3,-3.01,-29.35,-30.05,0,*6A
1491786322.25,5274,13.44,74056.0,-3.01,-29.39,-30.17,0,*62
1491786323.49,5275,13.44,74056.8,-3.01,-29.67,-30.45,0,*6F
1491786324.7,5276,13.44,74058.0,-2.99,-29.61,-30.27,0,*6E
1491786325.93,5277,13.44,74058.5,-2.99,-29.83,-30.55,0,*66
1491786327.16,5278,13.44,74058.0,-2.99,-29.79,-30.51,0,*68
1491786328.38,5279,13.44,74056.8,-2.99,-29.79,-30.39,0,*67
1491786329.62,5280,13.44,74054.8,-2.99,-29.83,-30.55,0,*6E
1491786330.84,5281,13.38,74052.3,-2.99,-29.79,-30.51,0,*6E
1491786332.07,5282,13.44,74054.8,-2.99,-29.79,-30.51,0,*6D
1491786333.3,5283,13.38,74052.8,-2.99,-29.79,-30.51,0,*6C
1491786334.54,5284,13.44,74052.8,-2.99,-29.35,-30.11,0,*67
1491786335.82,5285,13.44,74054.3,-3.01,-29.39,-30.05,0,*6F
1491786337.08,5286,13.44,74058.3,-2.99,-29.35,-30.01,0,*64
1491786338.29,5287,13.44,74056.0,-2.99,-29.61,-30.33,0,*65
1491786339.53,5288,13.44,74058.3,-2.99,-29.83,-30.51,0,*62
1491786340.76,5289,13.44,74056.5,-2.99,-29.83,-30.51,0,*63
1491786341.99,5290,13.44,74054.3,-2.99,-29.83,-30.51,0,*6B
1491786343.22,5291,13.38,74052.8,-2.99,-29.79,-30.51,0,*6F
1491786344.45,5292,13.44,74052.5,-2.99,-29.79,-30.39,0,*62
1491786345.71,5293,13.44,74056.3,-2.99,-29.51,-30.39,0,*69
1491786346.98,5294,13.44,74058.0,-2.99,-29.51,-30.17,0,*62
1491786348.19,5295,13.38,74054.5,-2.99,-29.67,-30.33,0,*60
1491786349.42,5296,13.44,74056.8,-2.99,-29.83,-30.55,0,*69
1491786350.65,5297,13.44,74056.3,-2.99,-29.79,-30.55,0,*6D
1491786351.93,5298,13.44,74054.5,-3.01,-29.89,-30.55,0,*6D
1491786353.16,5299,13.44,74056.3,-2.99,-29.79,-30.55,0,*63
1491786354.4,5300,13.44,74056.0,-3.01,-29.83,-30.45,0,*66
1491786355.63,5301,13.44,74054.8,-2.99,-29.83,-30.55,0,*66
1491786356.86,5302,13.44,74058.0,-2.99,-29.79,-30.51,0,*64
1491786358.09,5303,13.38,74054.5,-2.99,-29.79,-30.51,0,*65
1491786359.38,5304,13.44,74054.3,-3.01,-29.39,-30.17,0,*64
1491786360.61,5305,13.44,74058.5,-2.99,-29.61,-30.17,0,*68
1491786361.85,5306,13.44,74054.0,-2.99,-29.83,-30.55,0,*61
1491786363.08,5307,13.44,74056.5,-2.99,-29.67,-30.55,0,*6A
1491786364.31,5308,13.44,74058.5,-2.99,-29.79,-30.51,0,*6E
1491786365.59,5309,13.44,74056.8,-2.97,-30.01,-30.73,0,*66
1491786366.85,5310,13.44,74056.8,-3.01,-30.23,-30.77,0,*64
1491786368.11,5311,13.44,74056.3,-3.01,-29.83,-30.55,0,*67
1491786369.4,5312,13.44,74058.8,-3.01,-29.89,-30.61,0,*69
1491786370.63,5313,13.44,74054.5,-3.03,-29.83,-30.55,0,*67
1491786371.92,5314,13.44,74052.8,-3.01,-29.89,-30.55,0,*68
1491786373.18,5315,13.44,74056.3,-3.01,-29.83,-30.55,0,*63
1491786374.42,5316,13.44,74052.5,-3.01,-29.67,-30.33,0,*6A
1491786375.66,5317,13.44,74054.8,-3.01,-29.67,-30.33,0,*6B
1491786376.89,5318,13.44,74052.8,-2.99,-29.51,-30.27,0,*64
1491786378.12,5319,13.44,74058.8,-2.99,-29.67,-30.39,0,*6F
1491786379.35,5320,13.44,74052.8,-2.99,-29.83,-30.55,0,*65
1491786380.58,5321,13.44,74056.5,-2.99,-29.79,-30.51,0,*65
1491786381.84,5322,13.38,74052.8,-3.01,-29.73,-30.45,0,*69
1491786383.08,5323,13.44,74054.3,-2.99,-29.51,-30.27,0,*6C
1491786384.28,5324,13.44,74058.3,-2.99,-29.61,-30.27,0,*68
1491786385.54,5325,13.44,74052.5,-3.01,-29.73,-30.45,0,*6E
1491786386.8,5326,13.44,74056.0,-3.01,-29.83,-30.61,0,*64
1491786388.09,5327,13.44,74058.0,-3.01,-30.05,-30.73,0,*60
1491786389.37,5328,13.44,74054.0,-3.01,-30.01,-30.61,0,*68
1491786390.67,5329,13.44,74056.3,-3.01,-29.89,-30.61,0,*61
1491786391.88,5330,13.44,74052.8,-2.99,-29.95,-30.67,0,*62
1491786393.17,5331,13.44,74054.5,-3.01,-29.89,-30.55,0,*6F
1491786394.44,5332,13.44,74056.3,-3.01,-30.01,-30.55,0,*64
1491786395.7,5333,13.38,74052.8,-3.03,-29.89,-30.55,0,*6F
1491786396.99,5334,13.44,74056.5,-3.01,-29.89,-30.61,0,*6D
1491786398.28,5335,13.44,74052.5,-3.01,-29.89,-30.55,0,*6B
1491786399.51,5336,13.38,74048.8,-2.99,-29.79,-30.55,0,*67
1491786400.76,5337,13.44,74054.3,-3.01,-29.73,-30.45,0,*6D
1491786401.97,5338,13.38,74054.3,-3.03,-29.83,-30.45,0,*6F
1491786403.26,5339,13.44,74052.8,-3.01,-29.89,-30.39,0,*6D
1491786404.52,5340,13.44,74058.3,-3.01,-29.83,-30.55,0,*63
1491786405.75,5341,13.44,74058.0,-2.99,-29.61,-30.17,0,*68
1491786407.01,5342,13.44,74058.3,-2.99,-29.29,-30.01,0,*60
1491786408.23,5343,13.44,74058.3,-2.99,-29.29,-30.11,0,*60
1491786409.46,5344,13.44,74056.3,-2.99,-29.83,-30.51,0,*63
1491786410.69,5345,13.44,74052.5,-2.99,-29.95,-30.55,0,*61
1491786411.93,5346,13.44,74054.3,-2.99,-30.01,-30.67,0,*66
1491786413.16,5347,13.44,74052.0,-2.99,-29.95,-30.51,0,*67
1491786414.39,5348,13.44,74058.8,-2.99,-29.83,-30.55,0,*6B
1491786415.61,5349,13.44,74054.0,-2.99,-29.95,-30.67,0,*6C
1491786416.82,5350,13.44,74054.8,-2.99,-29.67,-30.27,0,*6D
1491786418.06,5351,13.44,74054.3,-3.01,-29.67,-30.33,0,*69
1491786419.28,5352,13.44,74054.3,-2.99,-29.79,-30.39,0,*6F
1491786420.5,5353,13.44,74054.3,-2.99,-29.95,-30.67,0,*67
1491786421.73,5354,13.38,74052.8,-2.99,-29.95,-30.55,0,*61
1491786422.96,5355,13.44,74056.3,-2.99,-29.83,-30.55,0,*67
1491786424.19,5356,13.44,74054.3,-2.99,-29.83,-30.55,0,*64
1491786425.43,5357,13.44,74052.0,-2.99,-29.83,-30.55,0,*65
1491786426.66,5358,13.44,74056.5,-2.99,-29.83,-30.39,0,*60
1491786427.95,5359,13.44,74054.5,-3.01,-29.89,-30.61,0,*66
1491786429.23,5360,13.44,74056.0,-3.01,-29.73,-30.39,0,*64
1491786430.51,5361,13.44,74052.3,-3.01,-29.73,-30.55,0,*6F
1491786431.71,5362,13.44,74052.8,-2.99,-29.67,-30.27,0,*6C
1491786432.94,5363,13.44,74056.3,-2.99,-29.67,-30.39,0,*62
1491786434.16,5364,13.44,74054.0,-2.99,-29.67,-30.33,0,*6F
1491786435.42,5365,13.44,74058.5,-2.97,-29.45,-30.17,0,*66
1491786436.65,5366,13.44,74056.3,-2.99,-29.67,-30.39,0,*67
1491786437.88,5367,13.44,74052.5,-2.99,-29.83,-30.39,0,*6C
1491786439.14,5368,13.44,74056.0,-2.97,-29.83,-30.51,0,*63
1491786440.42,5369,13.44,74054.3,-3.01,-29.89,-30.55,0,*62
1491786441.65,5370,13.44,74052.3,-2.99,-29.83,-30.55,0,*60
1491786442.89,5371,13.44,74054.3,-2.99,-29.83,-30.51,0,*65
1491786444.12,5372,13.44,74056.5,-2.99,-29.83,-30.55,0,*62
1491786445.33,5373,13.44,74054.3,-2.99,-29.95,-30.67,0,*65
1491786446.57,5374,13.44,74054.3,-2.99,-30.01,-30.67,0,*67
1491786447.78,5375,13.44,74056.0,-2.99,-29.79,-30.33,0,*60
1491786449.04,5376,13.44,74052.5,-3.01,-29.89,-30.45,0,*6D
1491786450.33,5377,13.38,74054.5,-3.01,-29.89,-30.61,0,*6A
1491786451.59,5378,13.44,74056.0,-3.01,-29.83,-30.55,0,*68
1491786452.88,5379,13.44,74052.0,-3.01,-29.89,-30.61,0,*64
1491786454.14,5380,13.44,74054.5,-3.01,-29.83,-30.55,0,*6F
1491786455.43,5381,13.44,74052.5,-3.01,-29.89,-30.61,0,*63
1491786456.69,5382,13.44,74058.3,-3.01,-29.83,-30.55,0,*6D
1491786457.9,5383,13.38,74052.5,-2.99,-29.67,-30.33,0,*66
1491786459.19,5384,13.44,74054.0,-3.01,-29.89,-30.55,0,*61
1491786460.45,5385,13.44,74052.0,-3.01,-29.83,-30.55,0,*6A
1491786461.73,5386,13.44,74056.5,-3.01,-29.89,-30.55,0,*63
1491786462.97,5387,13.44,74052.3,-3.01,-29.83,-30.45,0,*69
1491786464.2,5388,13.44,74052.3,-2.99,-29.67,-30.39,0,*67
1491786465.46,5389,13.44,74054.8,-3.01,-29.73,-30.45,0,*68
1491786466.67,5390,13.44,74054.8,-2.99,-29.61,-30.33,0,*62
1491786467.88,5391,13.44,74058.0,-2.99,-29.67,-30.33,0,*65
1491786469.12,5392,13.44,74054.8,-3.01,-29.57,-30.33,0,*65
1491786470.38,5393,13.44,74054.5,-3.01,-29.83,-30.55,0,*6D
1491786471.61,5394,13.44,74056.3,-3.01,-29.83,-30.45,0,*6B
1491786472.84,5395,13.44,74052.3,-2.99,-29.79,-30.51,0,*6A
1491786474.05,5396,13.44,74056.5,-2.99,-29.79,-30.33,0,*6D
1491786475.28,5397,13.44,74054.0,-2.99,-29.83,-30.51,0,*6D
1491786476.51,5398,13.44,74052.3,-2.99,-29.79,-30.51,0,*67
1491786477.8,5399,13.44,74052.8,-3.01,-29.89,-30.73,0,*69
1491786479.09,5400,13.44,74056.3,-3.01,-29.89,-30.55,0,*6A
1491786480.35,5401,13.44,74054.8,-3.01,-29.83,-30.39,0,*6B
1491786481.63,5402,13.44,74054.8,-3.01,-29.89,-30.55,0,*68
1491786482.92,5403,13.44,74052.3,-3.01,-29.89,-30.55,0,*69
1491786484.15,5404,13.44,74056.0,-2.99,-29.95,-30.55,0,*63
1491786485.38,5405,13.44,74054.3,-3.01,-29.83,-30.45,0,*64
1491786486.62,5406,13.38,74054.5,-3.01,-29.83,-30.45,0,*67
1491786487.91,5407,13.38,74054.5,-3.01,-29.89,-30.61,0,*6A
1491786489.2,5408,13.44,74052.0,-3.01,-30.01,-30.73,0,*6E
1491786490.41,5409,13.44,74054.8,-2.99,-29.95,-30.67,0,*6F
1491786491.65,5410,13.44,74054.5,-2.99,-29.95,-30.51,0,*62
1491786492.87,5411,13.44,74054.3,-2.99,-29.79,-30.39,0,*6F
1491786494.11,5412,13.44,74054.5,-2.99,-29.67,-30.51,0,*6D
1491786495.34,5413,13.44,74054.3,-2.99,-29.83,-30.51,0,*66
1491786496.59,5414,13.38,74052.8,-2.99,-30.01,-30.55,0,*67
1491786497.87,5415,13.38,74054.5,-3.01,-30.01,-30.61,0,*61
1491786499.13,5416,13.44,74056.5,-3.01,-29.83,-30.55,0,*67
1491786500.39,5417,13.44,74056.3,-3.01,-29.83,-30.39,0,*6C
1491786501.61,5418,13.38,74050.8,-2.99,-29.83,-30.67,0,*68
1491786502.84,5419,13.44,74052.8,-2.99,-29.95,-30.55,0,*6F
1491786504.12,5420,13.44,74056.8,-3.01,-29.89,-30.55,0,*68